Terminal Aerodrome Forecast
Issued by NWS Sterling, VA

Current Version | Previous Version | Text Only | Print | Product List | Glossary Off
Versions: 1 2 3 4 5 6 7 8 9 10 11 12 13 14 15 16 17 18 19 20 21

833
FTUS41 KLWX 242057 AAA
TAFIAD
TAF AMD
KIAD 242057Z 2421/2524 17006KT P6SM SCT060
     FM251400 20006KT P6SM BKN050=

USA.gov is the U.S. government's official web portal to all federal, state and local government web resources and services.